Location: Godiavel Galaoual
(15.2485°N, 12.6604°W)
Time: 08:05:43
(UTC+00:00)

BlueWalker 3 - Visible Passes

Search period start: 04 December 2022 00:00
Search period end: 14 December 2022 00:00
Orbit: 501 x 519 km, 53.2° (Epoch: 03 December)

Date Brightness Start Highest point End Pass type
(mag) Time Alt. Az. Time Alt. Az. Time Alt. Az.
12 Dec 3.5 19:33:41 10° N 19:35:21 20° N 19:35:21 20° N visible
13 Dec 2.7 19:15:09 10° N 19:18:35 30° NE 19:20:23 20° E visible
13 Dec 5.3 20:55:12 10° W 20:55:26 11° W 20:55:26 11° W visible
